Pagina principale
METAR-TAF:

METAR-TAF

Aeroporti :

Fayetteville, Tennessee, Stati Uniti

latitudine: 35-03-35N, longitudine: 086-33-50W, altezza: 300 m

Osservazione

Il bollettino è stato emesso 13 minuti fa, alle 23:25 UTC
Vento 4 kt da sud-ovest
Temperature 19°C
Umidità 37%
Pressione 1019 hPa
Visibilità: 14.5 km
Cielo sereno

METAR: KFYM 242325Z AUTO 22004KT 9SM CLR 19/04 A3009 RMK A01

Ora: 18:38 (23:38 UTC)


TAF: mancante

Osservazioni e previsioni meteorologiche di più di 4000 aeroporti (messaggi METAR e TAF).

Le stazioni disponibili sono rappresentate dai dischi gialli e rossi sulla carta.

Puntare il mouse per vedere il nome della stazione.

Clicca sopra per visualizzare le osservazioni e previsioni meteorologiche.

Per cambiare la mappa : fare clic sui pulsanti verdi con una croce nera per ingrandire, il pulsante verde con un trattino per diminuire, o sulla freccia verde per le mappe adiacenti.


METAR-TAF: